G6UYG-13 Weather Reports


time (UTC)temp
C
wind
direction
speed
KPH
gust
KPH
rain 1hr
cm
rain 24hr
cm
rain mn
cm
humidity
%
barometer
mb
20260506011032 8 110 1.6 6.4 0.00 0.00 0.00 76 1013.3
20260506010332 8 84 3.2 6.4 0.00 0.00 0.00 76 1013.3
20260506005632 8 92 1.6 9.7 0.00 0.00 0.00 76 1013.3
20260506004932 8 79 0.0 0.0 0.00 0.00 0.00 77 1013.3
20260506004232 8 82 0.0 0.0 0.00 0.00 0.00 78 1013.3
20260506003532 8 80 0.0 0.0 0.00 0.00 0.00 79 1013.4
20260506002832 8 86 0.0 0.0 0.00 0.00 0.00 80 1013.4
20260506002132 8 86 0.0 0.0 0.00 0.00 0.00 80 1013.3
20260506001432 8 94 0.0 0.0 0.00 0.00 0.00 81 1013.3
20260506000732 8 90 0.0 0.0 0.00 0.00 0.00 82 1013.2
20260506000032 8 90 0.0 0.0 0.00 0.00 0.00 83 1013.2
20260505235332 8 90 0.0 0.0 0.00 0.00 0.00 83 1013.1
20260505234632 8 89 0.0 0.0 0.00 0.00 0.00 84 1013.1
20260505233932 8 96 3.2 6.4 0.00 0.00 0.00 84 1013.1
20260505233232 8 112 0.0 4.8 0.00 0.00 0.00 84 1013.1
20260505232532 8 355 0.0 0.0 0.00 0.00 0.00 83 1013.1
20260505231832 8 313 0.0 0.0 0.00 0.00 0.00 83 1013.1
20260505231132 8 313 0.0 0.0 0.00 0.00 0.00 83 1013.1
20260505230432 8 312 0.0 0.0 0.00 0.00 0.00 83 1013.2
20260505225732 8 311 0.0 0.0 0.00 0.00 0.00 83 1013.1
20260505225032 8 309 0.0 1.6 0.00 0.00 0.00 83 1013.0
20260505224332 8 306 0.0 0.0 0.00 0.00 0.00 83 1013.1
20260505223632 8 305 0.0 0.0 0.00 0.00 0.00 82 1013.1
20260505222932 8 305 0.0 0.0 0.00 0.00 0.00 82 1013.1
20260505222232 8 306 0.0 3.2 0.00 0.00 0.00 82 1013.1
20260505221532 8 315 0.0 3.2 0.00 0.00 0.00 81 1013.1
20260505220833 8 315 0.0 1.6 0.00 0.00 0.00 82 1013.1
20260505220133 8 315 0.0 0.0 0.00 0.00 0.00 81 1013.1
20260505215433 8 315 0.0 3.2 0.00 0.00 0.00 81 1013.0
20260505214733 8 330 0.0 0.0 0.00 0.00 0.00 81 1013.1
20260505214033 8 330 0.0 0.0 0.00 0.00 0.00 80 1013.0
20260505213333 8 330 0.0 0.0 0.00 0.00 0.00 80 1013.0
20260505212633 9 0 0.0 1.6 0.00 0.00 0.00 80 1013.0
20260505211933 9 0 0.0 3.2 0.00 0.00 0.00 79 1013.0
20260505211233 9 5 0.0 3.2 0.00 0.00 0.00 79 1012.9
20260505210533 9 5 0.0 4.8 0.00 0.00 0.00 78 1012.9
20260505205833 9 355 0.0 3.2 0.00 0.00 0.00 78 1012.9
20260505205133 9 324 0.0 6.4 0.00 0.00 0.00 77 1012.9
20260505204433 9 346 0.0 0.0 0.00 0.00 0.00 77 1013.0
20260505203733 9 67 1.6 3.2 0.00 0.00 0.00 76 1012.8
20260505203033 10 49 0.0 1.6 0.00 0.00 0.00 75 1012.8
20260505202333 10 43 1.6 4.8 0.00 0.00 0.00 75 1012.8
20260505201633 10 68 1.6 8.0 0.00 0.00 0.00 75 1012.8
20260505200933 10 47 3.2 6.4 0.00 0.00 0.00 74 1012.8
20260505200233 10 47 1.6 8.0 0.00 0.00 0.00 74 1012.7
20260505195533 10 44 3.2 4.8 0.00 0.00 0.00 74 1012.7
20260505194833 10 34 3.2 11.3 0.00 0.00 0.00 73 1012.7
20260505194133 10 63 3.2 3.2 0.00 0.00 0.00 73 1012.5
20260505193433 10 56 3.2 11.3 0.00 0.00 0.00 73 1012.5
20260505192733 11 45 3.2 8.0 0.00 0.00 0.00 73 1012.4
20260505192033 11 63 4.8 6.4 0.00 0.00 0.00 72 1012.4
20260505191333 11 89 3.2 12.9 0.00 0.00 0.00 72 1012.3
20260505190753 11 65 1.6 11.3 0.00 0.00 0.00 72 1012.2
20260505190633 11 65 1.6 11.3 0.00 0.00 0.00 72 1012.2
20260505185933 11 65 1.6 6.4 0.00 0.00 0.00 73 1012.2
20260505185233 11 57 0.0 6.4 0.00 0.00 0.00 74 1012.2
20260505184533 11 26 0.0 6.4 0.00 0.00 0.00 74 1012.2
20260505183833 11 355 0.0 4.8 0.00 0.00 0.00 74 1012.1
20260505183133 11 11 0.0 0.0 0.00 0.00 0.00 74 1012.1
20260505182433 11 23 0.0 0.0 0.00 0.00 0.00 75 1012.1
20260505181733 11 52 0.0 0.0 0.00 0.00 0.00 75 1012.0
20260505181033 11 275 0.0 0.0 0.00 0.00 0.00 75 1012.2
20260505180333 11 41 0.0 0.0 0.00 0.00 0.00 76 1012.1
20260505175633 11 80 0.0 4.8 0.00 0.00 0.00 76 1012.1
20260505174933 11 294 1.6 6.4 0.00 0.00 0.00 76 1012.2
20260505174233 11 71 1.6 6.4 0.00 0.00 0.00 76 1012.2
20260505173533 11 73 1.6 4.8 0.00 0.00 0.00 76 1012.2
20260505172909 11 5 1.6 6.4 0.00 0.00 0.00 75 1012.2
20260505172834 11 5 1.6 6.4 0.00 0.00 0.00 75 1012.2
20260505172134 11 258 1.6 3.2 0.00 0.00 0.00 75 1012.3
20260505171434 11 355 3.2 6.4 0.00 0.00 0.00 75 1012.3
20260505170734 11 40 3.2 8.0 0.00 0.00 0.00 74 1012.3
20260505170111 11 75 1.6 6.4 0.00 0.00 0.00 74 1012.4
20260505170034 11 75 1.6 6.4 0.00 0.00 0.00 74 1012.4
20260505165334 11 89 3.2 11.3 0.00 0.00 0.00 74 1012.4
20260505164800 11 20 3.2 12.9 0.00 0.00 0.00 74 1012.4
20260505164634 11 20 3.2 12.9 0.00 0.00 0.00 74 1012.4
20260505163934 11 59 3.2 9.7 0.00 0.00 0.00 73 1012.4
20260505163344 11 38 3.2 8.0 0.00 0.00 0.00 73 1012.4
20260505163234 11 38 3.2 8.0 0.00 0.00 0.00 73 1012.4
20260505162657 11 66 3.2 6.4 0.00 0.00 0.00 74 1012.4
20260505162534 11 66 3.2 6.4 0.00 0.00 0.00 74 1012.4
20260505161834 11 62 3.2 9.7 0.00 0.00 0.00 74 1012.4
20260505161134 11 350 3.2 4.8 0.00 0.00 0.00 74 1012.4
20260505160434 11 90 3.2 9.7 0.00 0.00 0.00 73 1012.3
20260505152934 11 323 3.2 6.4 0.00 0.00 0.00 74 1012.5
20260505152234 11 49 1.6 8.0 0.00 0.00 0.00 73 1012.5
20260505151534 11 78 3.2 11.3 0.00 0.00 0.00 72 1012.6
20260505150834 11 63 3.2 11.3 0.00 0.00 0.00 72 1012.6
20260505150134 11 75 3.2 11.3 0.00 0.00 0.00 72 1012.5
20260505140534 12 63 3.2 6.4 0.00 0.00 0.00 72 1012.7
20260505130234 11 67 4.8 16.1 0.00 0.00 0.00 73 1012.8
20260505124834 12 319 6.4 12.9 0.00 0.00 0.00 70 1012.6
20260505124135 12 11 3.2 12.9 0.00 0.00 0.00 67 1012.7
20260505123435 12 46 3.2 9.7 0.00 0.00 0.00 66 1012.6
20260505122735 12 46 3.2 8.0 0.00 0.00 0.00 67 1012.7
20260505122035 12 66 3.2 6.4 0.00 0.00 0.00 68 1012.7
20260505121335 12 67 3.2 8.0 0.00 0.00 0.00 70 1012.7
20260505120635 11 63 3.2 8.0 0.00 0.00 0.00 72 1012.7
20260505115935 11 325 3.2 6.4 0.00 0.00 0.00 72 1012.8
20260505115235 11 74 3.2 6.4 0.00 0.00 0.00 73 1012.7
20260505114535 11 33 1.6 4.8 0.00 0.00 0.00 74 1012.7
20260505113835 11 104 3.2 11.3 0.00 0.00 0.00 73 1012.8
20260505113135 11 5 1.6 3.2 0.00 0.00 0.00 74 1012.9
20260505112435 11 44 3.2 4.8 0.00 0.00 0.00 76 1013.0
20260505111735 11 75 3.2 4.8 0.00 0.00 0.00 76 1013.0
20260505111035 11 51 3.2 4.8 0.00 0.00 0.00 76 1013.0
20260505110335 11 65 3.2 8.0 0.00 0.00 0.00 75 1013.1
20260505102135 11 62 4.8 11.3 0.00 0.00 0.00 76 1013.1
20260505101435 11 39 3.2 9.7 0.00 0.00 0.00 75 1013.1
20260505100735 10 348 3.2 8.0 0.00 0.00 0.00 76 1013.1
20260505100035 10 305 3.2 8.0 0.00 0.00 0.00 76 1013.2
20260505095335 10 45 3.2 8.0 0.00 0.00 0.00 77 1013.2
20260505094635 11 333 3.2 11.3 0.00 0.00 0.00 77 1013.2
20260505093935 11 217 3.2 17.7 0.00 0.00 0.00 75 1013.2
20260505093235 11 113 3.2 16.1 0.00 0.00 0.00 75 1013.2
20260505092535 11 322 3.2 9.7 0.00 0.00 0.00 75 1013.2
20260505091835 11 70 3.2 8.0 0.00 0.00 0.00 74 1013.1
20260505091135 11 309 3.2 9.7 0.00 0.00 0.00 73 1013.1
20260505090435 11 75 3.2 9.7 0.00 0.00 0.00 72 1013.0
20260505090040 12 35 3.2 6.4 0.00 0.00 0.00 70 1013.0
20260505085735 12 35 3.2 6.4 0.00 0.00 0.00 70 1013.0
20260505085035 12 51 4.8 9.7 0.00 0.00 0.00 69 1013.1
20260505084335 12 59 3.2 12.9 0.00 0.00 0.00 68 1013.2
20260505083635 12 41 4.8 9.7 0.00 0.00 0.00 67 1013.2
20260505082935 12 29 4.8 14.5 0.00 0.00 0.00 67 1013.2
20260505082235 12 24 4.8 12.9 0.00 0.00 0.00 68 1013.2
20260505081535 12 102 3.2 6.4 0.00 0.00 0.00 70 1013.3
20260505080835 12 80 4.8 8.0 0.00 0.00 0.00 70 1013.4
20260505080135 13 78 4.8 11.3 0.00 0.00 0.00 69 1013.3
20260505075436 12 63 3.2 6.4 0.00 0.00 0.00 70 1013.3
20260505074736 12 9 3.2 9.7 0.00 0.00 0.00 71 1013.2
20260505074036 12 315 3.2 8.0 0.00 0.00 0.00 71 1013.3
20260505073336 12 325 3.2 8.0 0.00 0.00 0.00 72 1013.3
20260505072636 12 78 3.2 8.0 0.00 0.00 0.00 73 1013.3
20260505071936 12 46 3.2 8.0 0.00 0.00 0.00 74 1013.3
20260505071236 11 333 3.2 9.7 0.00 0.00 0.00 74 1013.3
20260505070536 11 323 3.2 6.4 0.00 0.00 0.00 74 1013.3
20260505065836 11 5 3.2 8.0 0.00 0.00 0.00 74 1013.3
20260505065136 11 42 1.6 6.4 0.00 0.00 0.00 75 1013.3
20260505064436 11 277 3.2 6.4 0.00 0.00 0.00 75 1013.4
20260505063736 10 351 3.2 6.4 0.00 0.00 0.00 76 1013.3
20260505063036 10 42 3.2 8.0 0.00 0.00 0.00 77 1013.3
20260505062336 10 316 1.6 6.4 0.00 0.00 0.00 78 1013.2
20260505061636 10 332 1.6 4.8 0.00 0.00 0.00 80 1013.3
20260505060936 9 9 1.6 9.7 0.00 0.00 0.00 81 1013.3
20260505060236 9 316 1.6 4.8 0.00 0.00 0.00 85 1013.3
20260505055536 8 304 1.6 3.2 0.00 0.00 0.00 87 1013.3
20260505054836 8 309 0.0 4.8 0.00 0.00 0.00 89 1013.2
20260505054136 7 32 0.0 0.0 0.00 0.00 0.00 91 1013.3
20260505053436 7 45 0.0 0.0 0.00 0.00 0.00 92 1013.3
20260505052935 7 49 0.0 0.0 0.00 0.00 0.00 92 1013.4
20260505052736 7 49 0.0 0.0 0.00 0.00 0.00 92 1013.4
20260505052036 6 49 0.0 0.0 0.00 0.00 0.00 92 1013.3
20260505051336 6 49 0.0 0.0 0.00 0.00 0.00 91 1013.4
20260505050636 6 49 0.0 0.0 0.00 0.00 0.00 91 1013.4
20260505041736 7 49 0.0 0.0 0.00 0.03 0.00 91 1013.2
20260505041036 7 49 0.0 0.0 0.00 0.03 0.00 91 1013.2
20260505040336 7 49 0.0 0.0 0.00 0.03 0.00 91 1013.2
20260505035636 7 49 0.0 1.6 0.00 0.03 0.00 91 1013.1
20260505034936 7 49 0.0 1.6 0.00 0.03 0.00 91 1013.1
20260505034236 7 49 0.0 1.6 0.00 0.03 0.00 91 1013.0
20260505033536 7 49 0.0 0.0 0.00 0.03 0.00 91 1013.1
20260505032836 7 49 0.0 0.0 0.00 0.03 0.00 91 1013.1
20260505032136 7 49 0.0 0.0 0.00 0.03 0.00 91 1013.1
20260505031437 8 49 0.0 0.0 0.00 0.03 0.00 91 1013.2
20260505030737 8 49 0.0 0.0 0.00 0.03 0.00 91 1013.1
20260505030037 8 49 0.0 0.0 0.00 0.03 0.00 91 1013.1
20260505025337 8 49 0.0 0.0 0.00 0.03 0.00 91 1013.2
20260505024637 8 49 0.0 0.0 0.00 0.03 0.00 91 1013.2
20260505023937 8 49 0.0 0.0 0.00 0.03 0.00 91 1013.1
20260505023237 8 49 0.0 0.0 0.00 0.03 0.00 91 1013.1
20260505022537 8 49 0.0 0.0 0.00 0.03 0.00 92 1013.1
20260505021837 8 49 0.0 0.0 0.00 0.03 0.00 92 1013.3
20260505021137 7 49 0.0 0.0 0.00 0.03 0.00 92 1013.2
20260505020437 7 49 0.0 0.0 0.00 0.03 0.00 92 1013.2
20260505015737 7 49 0.0 0.0 0.00 0.03 0.03 91 1013.2
20260505015037 7 49 0.0 0.0 0.00 0.03 0.03 91 1013.5
20260505014337 7 49 0.0 0.0 0.00 0.03 0.03 91 1013.5
20260505013637 7 49 0.0 0.0 0.00 0.03 0.03 91 1013.5
20260505012937 7 49 0.0 0.0 0.00 0.03 0.03 91 1013.6
20260505012237 7 49 0.0 0.0 0.00 0.03 0.03 91 1013.7